Zurück zum Katalog

FENGYUN 1C DEB

AktivSSO
NORAD 36281·DEBRIS·🇨🇳 China

Gestartet May 10, 1999 von Taiyuan Satellite Launch Center

Loading…

Nächste Überflüge (nächste 24 Stunden)

TLE

AktuellSource: Space-Track

Epoche: Sep 14, 2026, 12:58 UTC

1 36281U 99025DXJ 26257.54055382  .00002004  00000-0  20281-2 0  9990
2 36281  99.2531 170.4162 0286098 121.5577 241.3841 13.61676722882690

Verfolge FENGYUN 1C DEB in Echtzeit mit AllMySat

Download on the App Store